Regional Weather Roundup
Issued by NWS Columbia, SC

Home | Current Version | Previous Version | Text Only | Print | Product List | Glossary On
Versions: 1 2 3 4 5 6 7 8 9 10 11 12 13 14 15 16 17 18 19 20 21 22 23 24 25 26 27 28 29 30 31 32 33 34 35 36 37 38 39 40 41 42 43 44 45 46 47 48 49 50
000
ASUS42 KCAE 290510
RWRCAE
REGIONAL WEATHER ROUNDUP
NATIONAL WEATHER SERVICE COLUMBIA SC
100 AM EDT FRI MAY 29 2015

NOTE: "FAIR" INDICATES FEW OR NO CLOUDS BELOW 12,000 FEET WITH NO
SIGNIFICANT WEATHER AND/OR OBSTRUCTIONS TO VISIBILITY.

NOT ALL STATIONS ARE QUALITY CONTROLLED BY THE NATIONAL
WEATHER SERVICE. USE DATA WITH CAUTION...ESPECIALLY
DEWPOINT OBSERVATIONS.

SCZ001>056-GAZ040-063>065-077-290600-
...UPSTATE SOUTH CAROLINA...

CITY           SKY/WX    TMP DP  RH WIND       PRES   REMARKS
ANDERSON       PTCLDY    67  66  97 CALM      30.20F
LIBERTY        FOG      N/A N/A N/A CALM      30.21F VSB 3/4
SPARTANBURG      N/A    N/A N/A N/A MISG        N/A
CLEMSON        MOCLDY    69  65  86 CALM      30.22F
GREENVILLE     CLOUDY    70  64  81 NE6       30.23S
GREENWOOD      MOCLDY    68  66  93 CALM      30.23S
GREER          CLOUDY    68  65  90 E5        30.21S
ROCK HILL      LGT RAIN  70  68  93 SE3       30.23S FOG
CHESTER        CLOUDY    70  68  94 CALM      30.23F
LAURENS        MOCLDY    68  68 100 CALM      30.22S


...CENTRAL SOUTH CAROLINA...

CITY           SKY/WX    TMP DP  RH WIND       PRES   REMARKS
COLUMBIA APT   PTCLDY    73  63  70 CALM      30.20F
COLUMBIA OWENS CLEAR     72  64  76 CALM      30.22S
DARLINGTON     PTCLDY    70  61  73 S6        30.23F
FLORENCE       PTCLDY    68  62  81 SE5       30.22S
MCENTIRE ANGB  CLEAR     68  64  86 E3        30.20F
ORANGEBURG     CLEAR     68  61  78 SE3       30.21F
SUMTER SHAW    CLEAR     70  64  80 SE2       30.20S
AIKEN          CLOUDY    72  63  73 CALM      30.25S
BARNWELL       FAIR      70  66  88 CALM      30.21S
MANNING        FAIR      63  61  94 CALM      30.21F
CAMDEN         FAIR      72  63  73 CALM      30.22S
LANCASTER      LGT RAIN  68  68 100 E3        30.23S
WINNSBORO      PTCLDY    72  64  78 SE3       30.22S


...EASTERN AND COASTAL SOUTH CAROLINA...

CITY           SKY/WX    TMP DP  RH WIND       PRES   REMARKS
MYRTLE BEACH   MOCLDY    68  63  83 CALM      30.24S
N MYRTLE BCH   MOCLDY    66  63  90 CALM      30.22F
CONWAY         FAIR      61  61 100 CALM      30.23S
MARION         FAIR      64  64 100 CALM      30.23S
HARTSVILLE     FAIR      68  61  77 CALM      30.22S
FLORENCE       PTCLDY    68  62  81 SE5       30.22S
DARLINGTON     PTCLDY    70  61  73 S6        30.23F
CHARLESTON APT PTCLDY    67  63  87 CALM      30.21F
MOUNT PLEASANT LGT RAIN  66  64  94 CALM      30.21F
WALTERBORO     CLEAR     63  61  94 E5        30.21F
BEAUFORT       CLEAR     67  64  90 CALM      30.20F


...EASTERN GEORGIA...

CITY           SKY/WX    TMP DP  RH WIND       PRES   REMARKS
AUGUSTA BUSH F PTCLDY    69  66  90 E3        30.19F
AUGUSTA DANIEL CLEAR     74  64  71 E3        30.21S
THOMSON        PTCLDY    71  71 100 CALM      30.24F
WASHINGTON     FAIR      68  68 100 CALM      30.21S FOG
CLAXTON        FAIR      63  63 100 CALM      30.18F
SYLVANIA       PTCLDY    67  65  94 CALM      30.21S
STATESBORO     PTCLDY    65  65 100 CALM      30.20S
SAVANNAH       CLEAR     69  64  84 E6        30.19F


...SOUTHERN NORTH CAROLINA...

CITY           SKY/WX    TMP DP  RH WIND       PRES   REMARKS
CHARLOTTE      MOCLDY    73  65  75 SE7       30.23S
MONROE         LGT RAIN  70  67  90 CALM      30.22F
WADESBORO      PTCLDY    71  66  83 CALM      30.22S
ROCKINGHAM     PTCLDY    71  64  78 S3        30.22F
RUTHERFORDTON  MOCLDY    65  64  97 N3        30.23F
ASHEVILLE      MOCLDY    66  62  87 CALM      30.28F

$$


USA.gov is the U.S. government's official web portal to all federal, state and local government web resources and services.